{"data":{"norad_id":65483,"intl_designator":"2025-195AB","name":"STARLINK-35037","alt_names":[],"object_type":"PAYLOAD","status":"ACTIVE","operator":null,"country":"US","launch_date":"2025-09-03","launch_site_code":"AFETR","launch_vehicle":null,"mission":null,"orbit_class":"UNKNOWN","rcs_meters":null,"size_class":null,"mass_kg":null,"dimensions":null,"purposes":["comms"],"wikipedia_slug":null,"has_3d_model":false,"image_url":null,"decayed_at":null,"tle_current":{"epoch":"2026-09-20T04:46:21.012384Z","epoch_age_seconds":138074,"freshness":"FRESH","line1":"1 65483U 25195AB  26263.19885431  .00016007  00000+0  48394-3 0  9990","line2":"2 65483  53.1592  71.1492 0001021  99.0229 261.0889 15.34394914 59801","mean_motion":15.34394914,"eccentricity":0.0001021,"inclination_deg":53.1592,"raan_deg":71.1492,"arg_perigee_deg":99.0229,"mean_anomaly_deg":261.0889,"bstar":0.00048394,"rev_number":5980,"period_min":93.848069154901,"perigee_km":462.01990558075,"apogee_km":463.41680824463,"semimajor_km":6840.8553569127,"source":"CELESTRAK","updated_at":"2026-09-21T09:00:35.640271Z"}}}